sat.trackr.live / text

‹ back to catalog

STARLINK-6150

NORAD 57119 · 2023-090U

PAYLOAD ACTIVE UNKNOWN

§ Identity

Operator
Country
US
Launch date
2023-06-23
Launch site
AFETR
Launch vehicle
Mass (kg)
RCS (m²)

Purposes: comms

External: N2YO · Heavens-Above · Gunter

§ Orbital elements

Epoch: 2026-09-20T16:43:08.863968Z

Period
94.27 min
Inclination
43.0014°
Eccentricity
0.0000477
Mean motion
15.27568863 rev/d
Perigee alt
482.8 km
Apogee alt
483.4 km
Semi-major
6,861.2 km
B*
2.8578e-5
RAAN
260.4706°
Arg perigee
299.1575°
Mean anomaly
60.9229°
Rev number
18,015

§ Raw data

STARLINK-61501 57119U 23090U   26263.69663037  .00000524  00000+0  28578-4 0  99902 57119  43.0014 260.4706 0000477 299.1575  60.9229 15.27568863180152

JSON: /api/v1/satellites/57119 · /tle

For live sub-satellite position, see the globe view (requires WebGL).

§ Visibility from observer

Set your observer location to see the next 7 days of passes ≥ 10°. The values pass through the URL so the page stays shareable.

No JS? Fill the form by hand. The geolocation button needs JavaScript.